Regional Weather Roundup
Issued by NWS

Home | Current Version | Previous Version | Text Only | Print | Product List | Glossary On
Versions: 1 2 3 4 5 6 7 8 9 10 11 12 13 14 15 16 17 18 19 20 21 22 23 24 25 26 27 28 29 30 31 32 33 34 35 36 37 38 39 40 41 42 43 44 45 46 47 48 49 50
372
ASUS45 KSLC 220610
RWRUT

UTAH REGIONAL WEATHER ROUNDUP
NATIONAL WEATHER SERVICE SALT LAKE CITY UT
1200 AM MDT SUN OCT 22 2017

UTZ001>011-023>025-220700-

NORTHERN UTAH

CITY           SKY/WX    TMP DP  RH WIND       PRES   REMARKS
BRIGHAM CITY   CLOUDY    48  22  35 NW3       30.33R
HILL AFB       CLOUDY    47  18  31 S5        30.33R
LOGAN          CLOUDY    42  26  53 CALM      30.31R
OGDEN          CLOUDY    47  23  38 S7        30.32R
SALT LAKE CITY MOCLDY    48  23  37 SE7       30.32R
TOOELE VALLEY  PTCLDY    37  21  52 SE6       30.33R WCI  33
WENDOVER       CLOUDY    45  21  38 W3        30.32R
WEST JORDAN    CLOUDY    45  23  41 S12       30.33S

$$

UTZ011>015-024>027-220700-

CENTRAL/NORTHEAST UTAH

CITY           SKY/WX    TMP DP  RH WIND       PRES   REMARKS
PROVO AIRPORT  CLOUDY    39  23  52 SE3       30.36R
MOAB/CANYONLAN CLEAR     38  12  34 W5        30.31R WCI  34
DELTA          CLEAR     36  19  51 NE6       30.34R WCI  31
PRICE          CLEAR     37  15  40 CALM      30.33R
ROOSEVELT      CLEAR     36  18  48 CALM      30.31R
VERNAL         CLEAR     33  17  51 NW6       30.30R WCI  28

$$

UTZ013>016-019>022-027-220700-

SOUTHERN UTAH

CITY           SKY/WX    TMP DP  RH WIND       PRES   REMARKS
BRYCE CANYON   CLEAR     26  12  55 W3        30.41S
CEDAR CITY     PTCLDY    43  15  32 S3        30.34R
MILFORD        CLEAR     35  10  35 W5        30.34R WCI  31
ST GEORGE      CLEAR     53  13  20 CALM      30.29R
HANKSVILLE     CLEAR     37  12  35 CALM      30.34S
BLANDING         N/A     40   6  24 S5        30.41R

$$

REGIONAL REPORTS     COLORADO/ARIZONA

CITY           SKY/WX    TMP DP  RH WIND       PRES   REMARKS
CRAIG, CO      CLEAR     27  21  78 CALM      30.32R
GRAND JUNCTION CLEAR     38  13  35 E6        30.32R WCI  33
RIFLE, CO      CLEAR     32  25  75 CALM      30.36R
MONTROSE, CO   CLEAR     34  17  50 SE8       30.38R WCI  27
CORTEZ, CO     CLOUDY    28  12  51 E8        30.36R WCI  20
COLORADO CITY    N/A     37  14  38 CALM      30.37R
PAGE, AZ       CLEAR     50  20  30 CALM      30.31R
GRAND CANYON   PTCLDY    28   4  35 CALM      30.38R
KINGMAN, AZ    CLEAR     52  13  21 E9        30.25R
FLAGSTAFF, AZ  PTCLDY    29  10  45 CALM      30.39R

$$

REGIONAL REPORTS    NEVADA/IDAHO/WYOMING

CITY           SKY/WX    TMP DP  RH WIND       PRES   REMARKS
LAS VEGAS, NV  CLEAR     62  16  16 W5        30.24R
ELY, NY        PTCLDY    42  20  41 CALM      30.38R
ELKO, NV       PTCLDY    40  28  62 CALM      30.33R
POCATELLO, ID  CLOUDY    42  37  82 S9        30.29S
BURLEY, ID     CLOUDY    42  41  96 CALM      30.25F
FORT BRIDGER,    N/A     33  18  52 W13       30.33R WCI  24
EVANSTON, WY   CLOUDY    32  17  54 SW10      30.32R WCI  24
ROCK SPRINGS,  CLOUDY    35  11  36 W14G23    30.27S WCI  26

$$




USA.gov is the U.S. government's official web portal to all federal, state and local government web resources and services.